Location: La Brionne
(46.1728°N, 1.7849°E)
Time: 17:53:35
(UTC+00:00)

Cosmos 1544 Rocket - Pass Details

Date: 29 October 2021
Orbit: 603 x 632 km, 82.5° (Epoch: 27 November)

Event Time Altitude Azimuth Distance (km) Brightness Sun altitude
Rises 18:45:11 0° 234° (SW) 2,916 7.8 -21.7°
Reaches altitude 10° 18:48:17 10° 257° (WSW) 2,012 7.2 -22.2°
Maximum altitude 18:50:56 15° 294° (WNW) 1,683 6.6 -22.7°
Drops below altitude 10° 18:53:35 10° 330° (NNW) 2,014 6.6 -23.1°
Sets 18:56:42 0° 353° (N) 2,922 7.2 -23.7°
